EHI
0 0 0 0 0 0 0 0 0 0 0 0 0 0 0 0 0 0 0 0 0 0 0 0 0 0 0 0 0 0 0 0 0 0 0 0 0 0 0 0 0 0 0
0 0 0 0 0 0 0 0 0 0 0 0 0 0 0 0 0 0 0 0 0 0 0 0 0 0 0 0 0 0 0 0 0 0 0 0 0 0 0 0 0 0 0
0 0 0 0 0 0 0 0 0 0 0 0 0 0 0 0 0 0 0 0 0 0 0 0 0 0 0 0 0 0 0 0 0 0 0 0 0 0 0 0 0 0 0
0 0 0 0 0 0 0 0 0 0 0 0 0 0 0 0 0 0 0 0 0 0 0 0 0 0 0 0 0 0 0 0 0 0 0 0 0 0 0 0 0 0 0
0 0 0 0 0 0 0 0 0 0 0 0 0 0 0 0 0 0 0 0 0 0 0 0 0 0 0 0 0 0 0 0 0 0 0 0 0 0 0 0 0 0 0
0 0 1 1 1 0 0 0 0 0 0 0 0 0 0 0 0 0 0 0 0 0 0 0 0 0 0 0 0 0 0 0 0 0 0 0 0 0 0 0 0 0 0
0 0 1 1 1 0 0 0 0 0 0 0 0 0 0 0 0 0 0 0 0 0 0 0 0 0 0 0 0 0 0 0 0 0 0 0 0 0 0 0 0 0 0
0 0 0 0 0 0 0 0 0 0 0 0 0 0 0 0 0 0 0 0 0 0 0 0 0 0 0 0 0 0 0 0 0 0 0 0 0 0 0 0 0 0 0
0 0 0 0 0 0 0 0 0 0 0 0 0 0 0 0 0 0 0 0 0 0 0 0 0 0 0 0 0 0 0 0 0 0 0 0 0 0 0 0 0 0 0
0 0 0 0 0 0 0 0 0 0 0 0 0 0 0 0 0 0 0 0 0 0 0 0 0 0 0 0 0 0 0 0 0 0 0 0 0 0 0 0 0 0 0
0 0 0 0 0 0 0 0 0 0 0 0 0 0 0 0 0 0 0 0 0 0 0 0 0 0 0 0 0 0 0 0 0 0 0 0 0 0 0 0 0 0 0
0 0 0 0 0 0 0 0 0 0 0 0 0 0 0 0 0 0 0 0 0 0 0 0 0 0 0 0 0 0 0 0 0 0 0 0 0 0 0 0 0 0 0
0 0 0 0 0 0 0 0 0 0 0 0 0 0 0 0 0 0 0 0 0 0 0 0 0 0 0 0 0 0 0 0 0 0 0 0 0 0 0 0 0 0 0
0 0 0 0 0 0 0 0 0 0 0 0 0 0 0 0 0 0 0 0 0 0 0 0 0 0 0 0 0 0 0 0 0 0 0 0 0 0 0 0 0 0 0
0 0 0 0 0 0 0 0 0 0 0 0 0 0 0 0 0 0 0 0 0 0 0 0 0 0 0 0 0 0 0 0 0 0 0 0 0 0 0 0 0 0 0
0 0 0 0 0 0 0 0 0 0 0 0 0 0 0 0 0 0 0 0 0 0 0 0 0 0 0 0 0 0 0 0 0 0 0 0 0 0 0 0 0 0 0
0 0 0 0 0 0 0 0 0 0 0 0 0 0 0 0 0 0 0 0 0 0 0 0 0 0 0 0 0 0 0 0 0 0 0 0 0 0 0 0 0 0 0
0 0 0 0 0 0 0 0 0 0 0 0 0 0 0 0 0 0 0 0 0 0 0 0 0 0 0 0 0 0 0 0 0 0 0 0 0 0 0 0 0 0 0
0 0 0 0 0 0 0 0 0 0 0 0 0 0 0 0 0 0 0 0 0 0 0 0 0 0 0 0 0 0 0 0 0 0 0 0 0 0 0 0 0 0 0
0 0 0 0 0 0 0 0 0 0 0 0 0 0 0 0 0 0 0 0 0 0 0 0 0 0 0 0 0 0 0 0 0 0 0 0 0 0 0 0 0 0 0
0 0 0 0 0 0 0 0 0 0 0 0 0 0 0 0 0 0 0 0 0 0 0 0 0 0 0 0 0 0 0 0 0 0 0 0 0 0 0 0 0 0 0
0 0 0 0 0 0 0 0 0 0 0 0 0 0 0 0 0 0 0 0 0 0 0 0 0 0 0 0 0 0 0 0 0 0 0 0 0 0 0 0 0 0 0
0 0 0 0 0 0 0 0 0 0 0 0 0 0 0 0 0 0 0 0 0 0 0 0 0 0 0 0 0 0 0 0 0 0 0 0 0 0 0 0 0 0 0
0 0 0 0 0 0 0 0 0 0 0 0 0 0 0 0 0 0 0 0 0 0 0 0 0 0 0 0 0 0 0 0 0 0 0 0 0 0 0 0 0 0 0
0 0 0 0 0 0 0 0 0 0 0 0 0 0 0 0 0 0 0 0 0 0 0 0 0 0 0 0 0 0 0 0 0 0 0 0 0 0 0 0 0 0 0
0 0 0 0 0 0 0 0 0 0 0 0 0 0 0 0 0 0 0 0 0 0 0 0 0 0 0 0 0 0 0 0 0 0 0 0 0 0 0 0 0 0 0
Wind_Speed
8 11 14 12 15 14 12 10 8 7 7 6 5 6 6 5 5 5 6 6 7 8 9 8 6 6 8 9 11 12 11 9 9 8 9 9 9 9 10 13 13 7 9
11 12 13 14 16 14 12 10 9 7 6 6 5 6 6 6 5 5 6 7 7 7 8 8 6 6 8 9 11 11 9 7 5 2 3 6 8 8 11 11 11 8 13
12 12 12 16 15 14 13 11 10 8 6 5 5 5 6 5 5 6 6 6 7 7 8 8 6 6 8 9 9 9 8 5 4 6 6 3 6 10 10 10 10 12 13
12 11 12 15 14 14 13 12 10 8 5 4 4 4 5 5 5 6 6 6 5 6 7 7 6 6 7 6 7 8 5 2 6 9 4 5 6 9 10 11 10 10 10
11 10 14 17 15 14 13 12 10 8 6 5 5 4 5 4 5 5 5 5 5 5 5 5 5 4 4 5 5 6 2 3 7 9 2 7 5 8 9 10 9 9 9
8 10 14 17 15 14 13 12 11 8 6 5 5 5 4 4 5 4 3 3 3 3 4 4 3 2 3 2 2 4 1 6 8 5 3 6 4 7 9 9 9 9 9
7 13 12 15 15 13 13 12 10 9 8 7 5 4 3 4 3 3 2 2 3 3 2 1 1 1 1 1 1 3 3 8 7 2 5 6 5 7 7 7 7 6 7
8 13 11 13 12 12 12 11 10 8 8 8 6 4 2 2 3 3 1 3 4 3 3 3 3 3 3 2 2 2 3 8 8 2 5 6 6 5 5 5 5 5 6
7 11 11 9 8 9 9 11 10 7 7 8 7 5 3 3 3 3 2 4 5 3 3 4 5 5 5 5 4 3 3 8 6 4 4 5 5 4 3 3 3 4 3
6 7 11 11 10 8 6 10 10 8 7 8 7 5 6 5 6 6 6 7 6 5 5 5 6 7 7 6 5 5 5 7 6 5 2 5 7 5 4 3 3 2 2
6 6 6 9 9 10 10 11 10 8 8 10 8 9 8 5 7 8 8 9 8 7 7 6 6 6 5 6 8 8 6 4 7 4 3 9 8 7 7 6 5 4 4
7 7 5 6 7 6 7 9 6 7 7 7 6 8 6 6 6 7 11 11 10 8 8 8 8 7 5 4 7 7 3 6 6 3 4 11 9 9 9 9 8 7 7
8 7 7 6 7 6 4 6 5 5 6 8 8 9 8 7 4 5 5 5 5 6 5 7 6 4 5 5 4 5 6 6 4 3 5 12 11 10 11 11 11 10 10
9 9 8 8 7 7 6 4 4 4 4 5 7 8 7 4 3 4 4 5 5 4 5 5 4 7 7 6 4 6 7 4 3 3 5 13 13 13 13 13 13 13 13
10 10 10 8 7 7 6 5 5 5 5 5 5 6 6 4 4 4 3 3 4 4 5 5 5 6 6 7 7 7 6 6 5 5 4 12 14 15 16 17 16 16 16
9 9 9 10 8 7 6 6 5 5 5 5 5 6 7 5 5 4 4 4 4 4 4 5 6 6 5 5 6 7 7 6 6 6 5 8 15 17 18 19 19 19 19
7 8 10 11 12 10 8 8 6 5 5 5 5 7 8 7 6 6 5 5 5 5 6 5 6 5 5 5 6 7 6 7 7 8 8 6 7 15 19 21 21 21 22
8 9 10 10 12 12 9 7 5 6 6 6 6 6 9 9 9 7 6 6 6 6 5 5 6 5 5 5 4 5 5 6 8 8 7 8 7 7 14 21 22 22 23
10 9 9 9 10 11 10 7 6 6 7 6 6 7 9 11 11 9 8 7 7 6 6 6 6 5 6 6 6 6 6 6 7 8 9 9 8 8 8 14 20 22 23
5 8 10 10 11 10 9 7 5 6 6 6 7 9 10 10 11 10 8 9 8 6 7 7 7 6 5 5 6 6 6 7 7 8 9 8 8 9 9 10 10 13 21
9 6 4 7 8 8 5 6 6 6 5 5 7 9 10 11 11 11 9 8 8 8 9 8 7 8 7 5 4 5 6 7 9 7 7 7 9 10 10 12 10 9 8
10 10 8 5 4 6 6 6 4 5 5 7 7 9 10 10 9 9 10 8 8 8 9 10 9 7 6 7 6 5 5 6 8 10 11 12 11 8 10 11 10 10 9
9 9 8 8 6 2 4 3 2 3 3 4 6 5 6 8 8 8 9 8 8 9 9 10 9 10 8 7 8 7 6 8 4 6 11 11 9 7 7 7 9 10 10
8 7 7 7 7 6 3 2 5 4 5 6 5 5 7 9 11 11 10 10 10 10 11 11 12 11 11 10 8 10 9 5 5 4 4 6 8 8 8 7 8 9 10
7 8 8 8 8 7 6 5 3 4 5 4 5 6 7 8 11 12 11 10 11 11 12 13 12 13 12 13 10 7 10 10 11 9 7 5 5 7 9 9 9 9 10
7 7 8 9 9 9 8 7 6 6 6 7 7 6 6 5 5 7 9 10 10 11 13 14 14 13 13 13 12 11 9 7 9 11 13 10 8 6 8 9 10 9 8
Wind_Direction
124 135 158 159 150 143 137 133 132 135 134 134 129 123 104 93 89 77 80 76 70 70 72 71 88 95 88 91 92 86 81 76 75 81 79 76 66 61 55 40 44 45 51
126 133 155 153 150 146 141 140 137 138 149 147 126 113 110 110 99 87 77 73 67 68 73 72 76 92 88 92 98 92 81 70 54 39 75 90 84 70 63 53 48 49 54
129 134 148 153 154 150 145 143 142 150 159 145 137 126 128 113 96 80 76 73 72 71 71 71 61 76 87 90 91 88 78 58 338 316 303 193 94 74 67 61 55 54 56
140 145 150 154 155 152 150 148 149 159 162 149 156 141 139 125 100 84 77 71 75 74 71 69 51 72 83 90 94 88 78 22 309 309 312 108 93 81 70 65 58 52 53
143 158 149 154 155 155 154 155 158 166 171 166 155 133 123 120 107 85 80 78 71 64 66 68 49 59 81 76 86 92 69 303 307 300 53 85 82 85 76 71 62 58 54
149 139 143 154 155 158 159 163 167 171 176 165 131 108 116 125 114 98 90 83 87 79 68 67 64 45 75 69 105 105 338 304 319 273 128 106 98 97 89 83 76 67 60
146 124 148 152 156 162 165 169 173 180 185 172 145 121 109 109 109 110 122 139 141 133 123 127 172 213 128 129 148 114 308 305 296 271 91 100 107 100 92 88 87 82 68
136 124 134 147 156 165 171 175 182 192 188 176 168 167 154 124 118 125 154 173 170 159 166 184 200 210 209 196 183 138 301 307 319 349 104 111 119 116 112 107 102 96 92
135 133 141 151 160 170 179 179 183 196 197 178 174 186 167 142 148 141 169 164 158 162 184 204 211 206 210 208 201 190 263 295 301 283 133 126 142 155 142 139 130 122 125
152 154 158 165 171 174 179 177 178 195 195 168 174 174 151 169 181 173 167 164 167 182 199 211 214 209 207 208 211 211 221 276 280 262 140 141 156 182 189 190 187 182 189
173 177 177 169 171 173 178 177 175 185 180 170 176 168 166 193 202 199 189 170 183 195 205 211 211 208 208 220 222 219 214 241 257 236 147 150 165 201 209 213 218 225 235
188 187 189 179 165 174 178 162 178 179 175 186 190 177 194 223 217 175 156 176 189 198 207 215 215 218 224 237 228 220 219 240 256 233 159 163 180 215 224 225 230 237 243
193 193 193 189 173 173 168 163 183 186 177 195 210 185 196 218 177 143 169 179 196 205 213 217 213 218 217 225 193 199 221 233 227 220 174 177 190 216 237 239 238 243 247
193 197 201 185 179 183 169 186 186 189 177 189 204 198 191 201 196 183 188 183 188 192 210 198 206 216 212 220 219 221 226 224 227 223 191 188 200 214 232 246 248 246 249
192 194 192 190 187 187 181 184 194 198 188 195 195 199 195 183 192 211 206 200 191 194 195 200 212 230 209 206 212 221 233 227 227 217 201 201 208 219 230 238 247 251 251
195 189 185 184 194 198 191 186 194 205 196 198 191 194 202 195 193 200 205 209 199 202 205 198 209 228 226 215 218 216 216 221 230 232 223 215 217 221 229 236 242 247 250
201 194 188 186 186 200 205 193 190 200 194 200 205 199 202 201 198 196 204 208 202 204 208 208 220 226 227 222 220 222 221 217 218 221 221 219 217 221 226 235 240 244 247
205 203 196 189 185 193 202 202 192 194 196 197 202 204 207 204 199 200 204 211 204 202 209 211 213 220 226 228 230 233 231 231 233 229 224 221 218 219 225 232 238 242 247
200 201 198 189 188 190 192 198 200 199 205 200 198 206 212 210 205 200 208 210 205 207 211 216 212 210 221 226 226 229 230 229 230 229 229 226 220 218 219 226 229 234 241
226 205 198 193 191 188 183 186 198 215 216 205 205 212 212 213 211 206 212 213 205 209 216 214 214 213 218 218 229 234 232 232 232 231 230 228 226 224 220 222 226 231 234
353 333 246 205 196 185 176 181 193 215 224 225 223 221 217 217 212 209 214 212 210 217 220 215 208 214 221 213 234 257 259 245 240 238 235 234 232 227 223 227 228 225 229
0 352 344 311 233 193 188 189 193 204 218 223 226 227 224 222 220 217 215 214 214 220 223 219 213 214 218 203 209 230 260 263 242 236 236 237 235 227 231 231 225 218 217
9 357 352 347 334 298 180 174 199 226 250 248 244 245 236 231 233 233 227 219 220 222 230 226 218 216 220 215 205 200 216 236 255 239 230 230 222 219 226 229 229 224 220
8 357 357 360 359 354 350 206 212 221 239 249 249 239 228 219 221 222 223 221 223 225 230 229 224 224 220 225 220 219 223 206 221 270 257 227 213 218 224 228 230 230 224
13 6 6 15 17 6 0 348 299 257 252 258 258 253 249 235 224 220 220 224 230 232 234 234 230 226 224 226 223 219 229 236 237 244 259 244 227 217 214 217 220 221 222
25 20 23 28 24 12 7 357 344 321 306 304 297 291 288 279 254 230 222 224 231 237 241 242 242 235 232 229 227 222 213 218 224 231 244 248 243 231 218 222 225 221 219